STARLINK-35917

Last updated on Tue Dec 16 2025 00:02:05 GMT+0000 (Coordinated Universal Time)

1 66503U 25263U 25349.33335648 .00076611 00000+0 18234-2 0 9996 2 66503 43.0003 110.1322 0001616 274.0015 49.1294 15.40691650 6052
UTC large
Height (km)
Speed (km/s)
/
Latitude / Longitude
Inclination (degrees)
Orbital Period (minutes)
Azimuth
Elevation
Range (km)
Doppler Factor

Next 0 passes for location: London (51.5072 / 0.1276)

Sorry there are no passes over London.